Regional Weather Roundup
Issued by NWS Little Rock, AR

Home | Current Version | Previous Version | Text Only | Print | Product List | Glossary On
Versions: 1 2 3 4 5 6 7 8 9 10 11 12 13 14 15 16 17 18 19 20 21 22 23 24 25 26 27 28 29 30 31 32 33 34 35 36 37 38 39 40 41 42 43 44 45 46 47 48 49 50
000
ASUS44 KLZK 240505
RWRLZK

WEATHER ROUNDUP FOR ARKANSAS
NATIONAL WEATHER SERVICE LITTLE ROCK AR
1200 AM CDT THU AUG 24 2017

NOTE: "FAIR" INDICATES FEW OR NO CLOUDS BELOW 12,000 FEET WITH NO
SIGNIFICANT WEATHER AND/OR OBSTRUCTIONS TO VISIBILITY.

ARZ001-003-010-029-240600-
NORTHWEST ARKANSAS

CITY           SKY/WX    TMP DP  RH WIND       PRES   REMARKS
FAYETTEVILLE   CLEAR     63  63 100 CALM      30.06R
FORT SMITH     CLEAR     72  69  90 E6        30.01R
HARRISON       CLEAR     62  58  86 CALM      30.07S
BENTONVILLE    CLEAR     66  54  63 NE5       30.06S
ROGERS         CLEAR     66  56  70 E6        30.07S
HIGHFILL       CLEAR     63  59  87 N3        30.06R
$$

ARZ004-005-016-240600-
NORTH CENTRAL ARKANSAS

CITY           SKY/WX    TMP DP  RH WIND       PRES   REMARKS
FLIPPIN        CLEAR     64  54  68 CALM      30.03R
MTN HOME       CLEAR     65  57  75 E5        30.05R
$$

ARZ040-041-240600-
WEST CENTRAL ARKANSAS

CITY           SKY/WX    TMP DP  RH WIND       PRES   REMARKS
MENA           MOCLDY    72  72 100 CALM      30.04R
MOUNT IDA      CLOUDY    71  69  93 CALM      30.01R
$$

ARZ009-017-025-026-028-240600-
NORTHEAST ARKANSAS

CITY           SKY/WX    TMP DP  RH WIND       PRES   REMARKS
CORNING        FAIR      64  64 100 CALM      30.03S
JONESBORO      CLEAR     65  60  84 N5        30.02S
NEWPORT        CLEAR     65  63  93 N5        30.02S
WALNUT RIDGE   CLEAR     64  59  82 N3        30.03R
BLYTHEVILLE    CLEAR     63  60  90 NE6       30.03R
$$

ARZ022-023-033-042-044-240600-
CENTRAL ARKANSAS

CITY           SKY/WX    TMP DP  RH WIND       PRES   REMARKS
LITTLE ROCK    PTCLDY    70  66  87 NE6       30.01S
N LITTLE ROCK    N/A     71  66  83 E5        30.02R
JACKSONVILLE   CLOUDY    71  67  88 NE3       30.01S FOG
CONWAY           N/A     70  68  94 CALM      30.00S
SEARCY         CLEAR     68  63  84 NE6       30.03S
HOT SPRINGS    CLOUDY    75  67  76 E6        30.01S
RUSSELLVILLE   CLEAR     67  66  97 CALM      30.01S
CLINTON        FAIR      64  64 100 CALM      30.04R
$$

ARZ036-240600-
EAST ARKANSAS

CITY           SKY/WX    TMP DP  RH WIND       PRES   REMARKS
WEST MEMPHIS   CLEAR     66  63  90 CALM      30.00S
$$

ARZ050-053-066-070-073-240600-
SOUTHWEST ARKANSAS

CITY           SKY/WX    TMP DP  RH WIND       PRES   REMARKS
ARKADELPHIA    CLOUDY    74  69  85 NE5       30.00R
CAMDEN         CLOUDY    77  68  73 NE5       29.98R
TEXARKANA      CLOUDY    76  74  93 NE3       29.98R
EL DORADO      MOCLDY    75  73  93 NE7       29.97S
DE QUEEN       PTCLDY    75  73  93 E6        29.97R
$$

ARZ056-057-069-240600-
SOUTHEAST ARKANSAS

CITY           SKY/WX    TMP DP  RH WIND       PRES   REMARKS
PINE BLUFF     CLEAR     72  68  87 NE3       30.00S
MONTICELLO     CLOUDY    75  68  78 NE9       29.98S

$$





USA.gov is the U.S. government's official web portal to all federal, state and local government web resources and services.